THORAD AGENA D DEB

Satellite information

Favourite Embed

Satellite Type and Status

DEBRISIN ORBIT

Key statistics

Satellite THORAD AGENA D DEB at a glance.

Uptime

20314

Days in orbit

Revolutions

≈ 14.3

Per day

Orbit

LEO

Low Earth Orbit

Inclination

70.0

Latest

Satellite identification and parameters

Extended collection of information and parameters for THORAD AGENA D DEB.

Object identification

Identified? True

Debris? True

Object name: THORAD AGENA D DEB

International designator: 1969-082GN

Object number (NORAD): 4547

Object ID (CCSDS): 4547

Country: UNITED STATES OF AMERICA (US)

Current information (Y/N): Y

RCS size: SMALL

Orbital parameters

Period: 100.409 minutes

Inclination: 69.99 deg

SMA: 7156.097 km

Apoapsis: 801.064 km

Periapsis: 754.859 km

RAAN: 25.8148 deg

Eccentricy: 0.0032284

Argument of periapsis: 37.5674 deg

Mean anomaly: 322.7698 deg

Mean motion: 14.34129836 rev/day

Mean motion (dot): 0.00001279 rev/day2

B* drag term: 0.00047442 1/REarth

Two-line elements (TLE)

Creation date: May 12, 2025, 10:26 p.m.

Reference frame: TEME

Reference center: EARTH

Epoch: May 12, 2025, 5:05 p.m. UTC

TLE line 0: 0 THORAD AGENA D DEB

TLE line 1: 1 4547U 69082GN 25132.71244195 .00001279 00000-0 47442-3 0 9994

TLE line 2: 2 4547 69.9900 25.8148 0032284 37.5674 322.7698 14.34129836874999

Live tracking on map

Real-time ground track for satellite THORAD AGENA D DEB.

In-orbit conjunctions

A list of the most updated potential collisions computed for object THORAD AGENA D DEB.

Target Orbit TCA Probability of collision Miss distance Type
FENGYUN 1C DEB SSO 2024-10-20 11:52:14 0.0001791945 9.0 (m) DEBRIS

Associated space launch

Poppy was the follow-on ELINT system, which succeeded the Grab ELINT satellite system.

THORAD AGENA D DEB was lifted into orbit during the mission ‘Thorad SLV-2G Agena D | Poppy 8A,B,C,D’, on board a Thorad SLV-2G Agena D space rocket.

The launch took place on Sept. 30, 1969, 1:40 p.m. from Space Launch Complex 1W.

For more information about the launch, click the button.

Launch to space Thorad SLV-2G Agena D | Poppy 8A,B,C,D
Thorad SLV-2G Agena D | Poppy 8A,B,C,D

Agency: N/A

Status: Launch Successful

Launch date: Sept. 30, 1969, 1:40 p.m. UTC

Rocket: Thorad SLV-2G Agena D

Launch pad: Space Launch Complex 1W

Location: Vandenberg SFB, CA, USA

...

Latest news about this satellite

There are no fresh news available about this satellite. Check back as we update our databases every day.


Newsletter sign-up

Weekly statistics, charts and insights to help you stay on top of the space industry.